UAL5175 KLAX-KSAN

Flight info

Callsign UAL5175
Flight time 0h 28m
Altitude 13000
Route LAXX1 MZB
Aircraft A320/M-SDE3FGHIRWY/LB1

Departure

Time 2026-04-20 04:53
Airport Los Angeles International Airport (KLAX)

Arrival

Time 2026-04-20 05:22
Airport San Diego International Airport (KSAN)
Time Latitude Longitude Altitude Speed Heading
2026-04-20 03:59 33.94185 -118.40153 75 ft 0 kts 262°
2026-04-20 04:39 33.94188 -118.40134 93 ft 2 kts 262°
2026-04-20 04:40 33.94190 -118.40114 93 ft 2 kts 250°
2026-04-20 04:40 33.94200 -118.40098 94 ft 2 kts 179°
2026-04-20 04:40 33.94203 -118.40098 93 ft 0 kts 170°
2026-04-20 04:44 33.94202 -118.40098 93 ft 1 kts 170°
2026-04-20 04:44 33.94174 -118.40090 93 ft 6 kts 167°
2026-04-20 04:44 33.94116 -118.40078 93 ft 11 kts 174°
2026-04-20 04:44 33.94044 -118.40069 95 ft 6 kts 173°
2026-04-20 04:45 33.94042 -118.40068 95 ft 0 kts 173°
2026-04-20 04:46 33.94038 -118.40068 95 ft 4 kts 173°
2026-04-20 04:46 33.93959 -118.40056 94 ft 12 kts 173°
2026-04-20 04:47 33.93892 -118.40017 97 ft 12 kts 127°
2026-04-20 04:47 33.93887 -118.39914 96 ft 15 kts 84°
2026-04-20 04:47 33.93901 -118.39771 95 ft 20 kts 82°
2026-04-20 04:47 33.93920 -118.39594 95 ft 23 kts 82°
2026-04-20 04:48 33.93941 -118.39389 95 ft 26 kts 83°
2026-04-20 04:48 33.93965 -118.39156 97 ft 30 kts 83°
2026-04-20 04:48 33.93988 -118.38930 94 ft 26 kts 83°
2026-04-20 04:48 33.94008 -118.38729 94 ft 20 kts 83°
2026-04-20 04:49 33.94027 -118.38550 96 ft 23 kts 82°
2026-04-20 04:49 33.94044 -118.38385 96 ft 18 kts 83°
2026-04-20 04:49 33.94060 -118.38224 95 ft 21 kts 83°
2026-04-20 04:49 33.94076 -118.38062 93 ft 15 kts 86°
2026-04-20 04:50 33.94021 -118.37998 94 ft 13 kts 174°
2026-04-20 04:50 33.93979 -118.38077 94 ft 7 kts 262°
2026-04-20 04:50 33.93978 -118.38081 94 ft 0 kts 262°
2026-04-20 04:52 33.93976 -118.38103 94 ft 19 kts 262°
2026-04-20 04:52 33.93926 -118.38587 99 ft 93 kts 263°
2026-04-20 04:53 33.93821 -118.39606 99 ft 149 kts 263°
2026-04-20 04:53 33.93690 -118.40885 674 ft 152 kts 262°
2026-04-20 04:53 33.93551 -118.42158 1387 ft 155 kts 261°
2026-04-20 04:53 33.93392 -118.43508 1819 ft 173 kts 260°
2026-04-20 04:54 33.92908 -118.44921 2168 ft 196 kts 233°
2026-04-20 04:54 33.92009 -118.46295 2528 ft 222 kts 231°
2026-04-20 04:54 33.91019 -118.47813 3025 ft 246 kts 230°
2026-04-20 04:54 33.89924 -118.49500 3721 ft 262 kts 230°
2026-04-20 04:55 33.88793 -118.51250 4708 ft 267 kts 230°
2026-04-20 04:55 33.87645 -118.53031 5707 ft 271 kts 230°
2026-04-20 04:55 33.86482 -118.54836 6694 ft 274 kts 230°
2026-04-20 04:55 33.85097 -118.56395 7632 ft 275 kts 207°
2026-04-20 04:56 33.83304 -118.57167 8597 ft 275 kts 193°
2026-04-20 04:56 33.81439 -118.57678 9582 ft 276 kts 191°
2026-04-20 04:56 33.79565 -118.58162 10312 ft 287 kts 191°
2026-04-20 04:56 33.77532 -118.58679 10616 ft 310 kts 191°
2026-04-20 04:57 33.75341 -118.59232 10919 ft 331 kts 191°
2026-04-20 04:57 33.73054 -118.59805 11560 ft 339 kts 191°
2026-04-20 04:57 33.70733 -118.60382 12331 ft 343 kts 191°
2026-04-20 04:57 33.68377 -118.60953 12842 ft 347 kts 189°
2026-04-20 04:58 33.65973 -118.60986 12991 ft 350 kts 171°
2026-04-20 04:58 33.63602 -118.59984 13027 ft 377 kts 151°
2026-04-20 04:58 33.61577 -118.57855 13029 ft 398 kts 129°
2026-04-20 04:58 33.60167 -118.55017 13033 ft 404 kts 121°
2026-04-20 04:59 33.58825 -118.52044 13032 ft 405 kts 120°
2026-04-20 04:59 33.57490 -118.49068 13037 ft 406 kts 120°
2026-04-20 04:59 33.56152 -118.46091 13043 ft 406 kts 121°
2026-04-20 04:59 33.54809 -118.43117 13045 ft 406 kts 121°
2026-04-20 05:00 33.53459 -118.40147 13044 ft 406 kts 121°
2026-04-20 05:00 33.52105 -118.37181 13049 ft 406 kts 121°
2026-04-20 05:00 33.50746 -118.34217 13049 ft 405 kts 121°
2026-04-20 05:00 33.49406 -118.31299 13050 ft 405 kts 121°
2026-04-20 05:01 33.48046 -118.28342 13052 ft 405 kts 121°
2026-04-20 05:01 33.46687 -118.25385 13049 ft 405 kts 121°
2026-04-20 05:01 33.45326 -118.22426 13046 ft 405 kts 121°
2026-04-20 05:01 33.43968 -118.19474 13045 ft 405 kts 121°
2026-04-20 05:02 33.42608 -118.16518 13041 ft 405 kts 121°
2026-04-20 05:02 33.41249 -118.13564 13037 ft 405 kts 121°
2026-04-20 05:02 33.39890 -118.10610 13016 ft 405 kts 121°
2026-04-20 05:02 33.38547 -118.07699 13015 ft 405 kts 121°
2026-04-20 05:03 33.37185 -118.04750 13010 ft 405 kts 121°
2026-04-20 05:03 33.35821 -118.01798 13009 ft 405 kts 121°
2026-04-20 05:03 33.34457 -117.98845 13009 ft 406 kts 121°
2026-04-20 05:03 33.33092 -117.95892 13010 ft 406 kts 121°
2026-04-20 05:04 33.31723 -117.92937 13019 ft 406 kts 121°
2026-04-20 05:04 33.30356 -117.89987 13020 ft 404 kts 121°
2026-04-20 05:04 33.29030 -117.87122 12951 ft 383 kts 121°
2026-04-20 05:04 33.27772 -117.84396 12581 ft 369 kts 121°
2026-04-20 05:05 33.26541 -117.81736 11979 ft 363 kts 121°
2026-04-20 05:05 33.25334 -117.79142 11359 ft 360 kts 121°
2026-04-20 05:05 33.24119 -117.76540 11054 ft 359 kts 121°
2026-04-20 05:05 33.22899 -117.73930 10965 ft 360 kts 121°
2026-04-20 05:06 33.21678 -117.71319 10981 ft 361 kts 121°
2026-04-20 05:06 33.20455 -117.68704 10997 ft 361 kts 121°
2026-04-20 05:06 33.19226 -117.66093 10994 ft 360 kts 122°
2026-04-20 05:06 33.17725 -117.63710 10985 ft 359 kts 131°
2026-04-20 05:07 33.16138 -117.61408 10986 ft 359 kts 131°
2026-04-20 05:07 33.14550 -117.59108 10985 ft 359 kts 131°
2026-04-20 05:07 33.12980 -117.56844 10985 ft 359 kts 131°
2026-04-20 05:07 33.11373 -117.54567 10987 ft 359 kts 131°
2026-04-20 05:08 33.09759 -117.52291 10990 ft 359 kts 131°
2026-04-20 05:08 33.08153 -117.50013 10987 ft 359 kts 131°
2026-04-20 05:08 33.06565 -117.47741 10628 ft 354 kts 131°
2026-04-20 05:08 33.05002 -117.45486 9994 ft 352 kts 130°
2026-04-20 05:09 33.03477 -117.43275 9763 ft 337 kts 130°
2026-04-20 05:09 33.02023 -117.41163 9632 ft 322 kts 130°
2026-04-20 05:09 33.00632 -117.39147 9499 ft 308 kts 131°
2026-04-20 05:09 32.99313 -117.37240 9379 ft 296 kts 131°
2026-04-20 05:10 32.98024 -117.35380 9242 ft 286 kts 131°
2026-04-20 05:10 32.96766 -117.33570 8964 ft 282 kts 131°
2026-04-20 05:10 32.95523 -117.31782 8635 ft 279 kts 131°
2026-04-20 05:10 32.94289 -117.30006 8303 ft 278 kts 131°
2026-04-20 05:11 32.93064 -117.28240 8001 ft 275 kts 131°
2026-04-20 05:11 32.91852 -117.26493 7679 ft 273 kts 131°
2026-04-20 05:11 32.90644 -117.24749 7349 ft 272 kts 131°
2026-04-20 05:11 32.89440 -117.23016 7022 ft 271 kts 131°
2026-04-20 05:12 32.88242 -117.21295 6705 ft 269 kts 132°
2026-04-20 05:12 32.87066 -117.19609 6406 ft 268 kts 132°
2026-04-20 05:12 32.85880 -117.17908 6074 ft 266 kts 131°
2026-04-20 05:12 32.84702 -117.16218 5990 ft 266 kts 132°
2026-04-20 05:13 32.83514 -117.14514 6000 ft 268 kts 132°
2026-04-20 05:13 32.82325 -117.12812 5999 ft 264 kts 132°
2026-04-20 05:13 32.81185 -117.11175 5998 ft 250 kts 132°
2026-04-20 05:13 32.80109 -117.09626 5997 ft 236 kts 132°
2026-04-20 05:14 32.79100 -117.08173 5994 ft 220 kts 132°
2026-04-20 05:14 32.78180 -117.06778 5996 ft 212 kts 125°
2026-04-20 05:14 32.77572 -117.05178 6000 ft 214 kts 109°
2026-04-20 05:14 32.77160 -117.03462 5797 ft 219 kts 109°
2026-04-20 05:15 32.76747 -117.01760 5546 ft 215 kts 109°
2026-04-20 05:15 32.76336 -117.00062 5351 ft 213 kts 109°
2026-04-20 05:15 32.75920 -116.98374 5182 ft 212 kts 112°
2026-04-20 05:15 32.75199 -116.96878 4933 ft 207 kts 135°
2026-04-20 05:16 32.74074 -116.95870 4689 ft 201 kts 157°
2026-04-20 05:16 32.72751 -116.95440 4444 ft 197 kts 177°
2026-04-20 05:16 32.71411 -116.95611 4210 ft 193 kts 198°
2026-04-20 05:16 32.70232 -116.96340 3980 ft 191 kts 218°
2026-04-20 05:17 32.69364 -116.97498 3767 ft 192 kts 238°
2026-04-20 05:17 32.68884 -116.98967 3530 ft 192 kts 259°
2026-04-20 05:17 32.68877 -117.00528 3305 ft 189 kts 279°
2026-04-20 05:17 32.69229 -117.02026 3029 ft 187 kts 285°
2026-04-20 05:18 32.69592 -117.03499 2772 ft 183 kts 286°
2026-04-20 05:18 32.69937 -117.04907 2532 ft 171 kts 286°
2026-04-20 05:18 32.70247 -117.06168 2341 ft 150 kts 285°
2026-04-20 05:18 32.70530 -117.07323 2156 ft 142 kts 286°
2026-04-20 05:19 32.70800 -117.08432 1974 ft 138 kts 285°
2026-04-20 05:19 32.71065 -117.09522 1754 ft 136 kts 285°
2026-04-20 05:19 32.71326 -117.10600 1535 ft 135 kts 285°
2026-04-20 05:19 32.71581 -117.11655 1325 ft 134 kts 285°
2026-04-20 05:20 32.71839 -117.12718 1107 ft 133 kts 285°
2026-04-20 05:20 32.72096 -117.13773 889 ft 133 kts 285°
2026-04-20 05:20 32.72356 -117.14825 658 ft 132 kts 286°
2026-04-20 05:20 32.72613 -117.15864 461 ft 130 kts 285°
2026-04-20 05:21 32.72855 -117.16899 262 ft 130 kts 285°
2026-04-20 05:21 32.73103 -117.17929 63 ft 129 kts 285°
2026-04-20 05:21 32.73339 -117.18902 26 ft 105 kts 287°
2026-04-20 05:21 32.73497 -117.19542 27 ft 51 kts 286°
2026-04-20 05:22 32.73525 -117.19774 29 ft 16 kts 256°
2026-04-20 05:22 32.73489 -117.19837 28 ft 0 kts 196°
2026-04-20 05:22 32.73489 -117.19838 28 ft 0 kts 196°
2026-04-20 05:23 32.73479 -117.19841 28 ft 4 kts 197°
2026-04-20 05:23 32.73432 -117.19875 27 ft 11 kts 225°
2026-04-20 05:24 32.73383 -117.19905 26 ft 5 kts 163°
2026-04-20 05:24 32.73370 -117.19896 32 ft 0 kts 152°